TimeCST,TemperatureF,Dew PointF,Humidity,Sea Level PressureIn,VisibilityMPH,Wind Direction,Wind SpeedMPH,Gust SpeedMPH,PrecipitationIn,Events,Conditions,WindDirDegrees,DateUTC
12:00 AM,67,61,76,29.88,12,NNE,4.6,,,,,20,2014-05-25 06:00:00
12:00 AM,68.0,60.8,78,30.03,-9999.0,NNE,4.6,-,N/A,,Clear,20,2014-05-25 06:00:00
1:00 AM,66.2,60.8,83,30.00,-9999.0,East,6.9,-,N/A,,Clear,90,2014-05-25 07:00:00
2:00 AM,66.2,59.0,78,29.99,-9999.0,ENE,3.5,-,N/A,,Clear,70,2014-05-25 08:00:00
3:00 AM,68,60,68,29.86,12,ENE,6.9,,,,,70,2014-05-25 09:00:00
3:00 AM,68.0,60.8,78,29.97,-9999.0,ENE,6.9,-,N/A,,Clear,70,2014-05-25 09:00:00
4:00 AM,66.2,59.0,78,29.97,-9999.0,NNE,6.9,-,N/A,,Clear,20,2014-05-25 10:00:00
5:00 AM,66.2,59.0,78,29.98,-9999.0,ENE,6.9,-,N/A,,Clear,60,2014-05-25 11:00:00
6:00 AM,69,60,64,29.86,12,NE,9.2,,,,Clear,50,2014-05-25 12:00:00
6:00 AM,69.8,59.0,68,29.99,-9999.0,NE,9.2,-,N/A,,Clear,50,2014-05-25 12:00:00
7:00 AM,73.4,60.8,65,30.01,-9999.0,ENE,8.1,-,N/A,,Clear,70,2014-05-25 13:00:00
8:00 AM,73.4,62.6,69,30.02,-9999.0,East,8.1,-,N/A,,Clear,80,2014-05-25 14:00:00
9:00 AM,78,63,51,29.88,12,WSW,3.5,,,,Scattered Clouds,250,2014-05-25 15:00:00
9:00 AM,78.8,62.6,57,30.03,6.2,WSW,3.5,-,N/A,,Scattered Clouds,250,2014-05-25 15:00:00
10:00 AM,80.6,66.2,61,30.03,6.2,WSW,5.8,-,N/A,,Scattered Clouds,240,2014-05-25 16:00:00
11:00 AM,78.8,66.2,65,30.02,6.2,WSW,9.2,-,N/A,,Scattered Clouds,250,2014-05-25 17:00:00
12:00 PM,78,66,59,29.88,12,SW,9.2,,,,Partly Cloudy,230,2014-05-25 18:00:00
12:00 PM,78.8,66.2,65,30.01,6.2,SW,9.2,-,N/A,,Mostly Cloudy,230,2014-05-25 18:00:00
1:00 PM,77.0,64.4,65,30.00,6.2,SSW,11.5,-,N/A,,Mostly Cloudy,210,2014-05-25 19:00:00
2:00 PM,75.2,66.2,73,29.99,6.2,SW,6.9,-,N/A,,Mostly Cloudy,220,2014-05-25 20:00:00
3:00 PM,74,69,78,29.86,6,WSW,4.6,,,,Overcast,250,2014-05-25 21:00:00
3:00 PM,73.4,68.0,83,29.97,6.2,WSW,4.6,-,N/A,,Mostly Cloudy,250,2014-05-25 21:00:00
4:00 PM,69.8,68.0,94,29.98,3.7,West,5.8,-,N/A,Fog-Rain,Light Rain,260,2014-05-25 22:00:00
5:00 PM,71.6,66.2,83,30.00,6.2,WNW,2.3,-,N/A,,Mostly Cloudy,300,2014-05-25 23:00:00
6:00 PM,71.6,66.2,83,30.01,6.2,ESE,2.3,-,N/A,,Mostly Cloudy,120,2014-05-26 00:00:00
7:00 PM,69.8,68.0,94,30.03,6.2,ENE,2.3,-,N/A,,Mostly Cloudy,70,2014-05-26 01:00:00
8:00 PM,71.6,66.2,83,30.04,6.2,ENE,2.3,-,N/A,,Mostly Cloudy,70,2014-05-26 02:00:00
9:00 PM,70,65,80,29.91,12,ENE,5.8,,,,Scattered Clouds,60,2014-05-26 03:00:00
9:00 PM,69.8,64.4,83,30.06,6.2,ENE,5.8,-,N/A,,Mostly Cloudy,60,2014-05-26 03:00:00
10:00 PM,69.8,64.4,83,30.07,6.2,ENE,4.6,-,N/A,,Mostly Cloudy,70,2014-05-26 04:00:00
11:00 PM,68.0,64.4,88,30.07,6.2,ENE,3.5,-,N/A,,Scattered Clouds,70,2014-05-26 05:00:00